Temp
-1 1 2 1 1 2 3 3 4 4 5 6 6 6 7 7 8 9 10 10 9 9 7 6 6 5 4
-2 -1 0 1 1 1 1 2 3 3 4 5 6 6 6 7 8 9 9 9 10 9 8 6 5 5 4
-4 -3 -2 -0 0 0 1 1 2 3 3 4 5 6 6 6 7 8 10 10 10 9 8 6 5 5 4
-5 -4 -4 -2 -1 -0 0 1 2 2 3 3 4 5 6 6 7 8 8 8 9 9 8 6 5 5 4
-5 -5 -5 -4 -3 -1 -1 -1 1 1 2 3 3 5 5 6 6 7 7 8 9 9 7 7 5 5 4
-7 -6 -5 -6 -5 -4 -3 -2 -2 -1 1 3 2 4 5 5 4 6 7 7 8 9 8 6 7 5 4
-7 -7 -6 -6 -6 -6 -5 -4 -3 -3 -4 2 2 3 4 5 5 5 6 7 7 8 8 7 7 7 4
-8 -7 -7 -7 -7 -8 -7 -6 -4 -3 -6 -3 1 2 3 4 5 5 5 7 7 8 7 8 6 7 4
-9 -8 -8 -8 -8 -8 -8 -8 -6 -4 -6 -6 -1 -0 1 3 4 5 5 6 7 7 7 7 7 7 4
-9 -9 -8 -8 -8 -8 -8 -8 -8 -7 -5 -6 -5 -5 -2 1 2 3 4 4 5 6 7 8 8 6 5
-9 -8 -8 -8 -8 -8 -8 -8 -8 -8 -7 -7 -6 -5 -6 -5 -0 1 2 3 5 6 6 7 7 6 6
-8 -8 -8 -8 -8 -8 -8 -8 -8 -7 -7 -8 -7 -7 -7 -7 -5 1 1 3 4 5 6 6 7 6 7
-8 -8 -8 -8 -8 -8 -8 -8 -8 -8 -8 -8 -7 -7 -7 -8 -7 -2 -1 1 3 3 4 5 6 5 4
-9 -8 -8 -8 -8 -8 -8 -8 -8 -8 -8 -8 -7 -8 -7 -7 -6 -4 -2 -2 1 3 4 4 4 5 5
-9 -9 -9 -9 -8 -8 -8 -8 -8 -8 -8 -8 -8 -7 -7 -7 -8 -6 -3 -1 -0 1 3 3 4 4 4
-9 -9 -9 -9 -9 -9 -9 -9 -9 -9 -9 -9 -9 -9 -8 -8 -8 -7 -4 -1 -1 -1 -0 3 3 4 4
-9 -9 -9 -9 -9 -9 -9 -9 -9 -9 -9 -9 -9 -9 -9 -8 -8 -7 -4 -2 -1 -1 -0 1 2 3 4
Height
1499 1502 1499 1496 1496 1496 1494 1491 1491 1489 1488 1488 1488 1490 1489 1491 1493 1496 1497 1499 1504 1510 1514 1517 1522 1526 1530
1494 1494 1496 1493 1490 1489 1491 1489 1486 1487 1484 1483 1482 1482 1484 1486 1487 1489 1494 1494 1500 1507 1510 1514 1519 1524 1528
1487 1488 1488 1490 1486 1484 1484 1485 1483 1481 1480 1479 1479 1479 1481 1482 1482 1485 1486 1488 1494 1501 1506 1510 1516 1521 1526
1480 1480 1480 1484 1484 1480 1477 1478 1478 1477 1476 1474 1474 1474 1474 1475 1479 1478 1482 1485 1488 1494 1503 1507 1513 1518 1523
1473 1473 1472 1474 1478 1478 1473 1471 1471 1471 1468 1468 1468 1470 1469 1470 1473 1473 1476 1481 1486 1490 1499 1504 1508 1515 1520
1465 1466 1466 1467 1470 1471 1469 1466 1463 1464 1462 1460 1461 1463 1463 1463 1465 1468 1472 1476 1479 1484 1492 1500 1504 1510 1517
1457 1458 1459 1459 1462 1462 1464 1463 1459 1458 1457 1452 1455 1455 1456 1456 1459 1462 1467 1470 1474 1480 1486 1495 1500 1505 1513
1449 1449 1451 1453 1454 1456 1456 1455 1454 1454 1454 1449 1448 1448 1449 1452 1454 1458 1460 1462 1468 1475 1481 1488 1495 1500 1508
1440 1441 1443 1445 1446 1447 1448 1450 1448 1448 1447 1445 1444 1442 1442 1444 1444 1446 1451 1457 1461 1466 1472 1482 1488 1495 1503
1431 1433 1434 1435 1438 1440 1441 1441 1444 1442 1440 1443 1442 1442 1437 1437 1438 1440 1443 1448 1451 1458 1463 1473 1480 1488 1495
1421 1423 1425 1426 1427 1429 1432 1434 1436 1435 1437 1438 1437 1438 1439 1434 1434 1434 1435 1439 1444 1448 1456 1465 1469 1477 1486
1413 1413 1415 1417 1419 1421 1423 1424 1426 1428 1430 1433 1432 1434 1434 1433 1429 1431 1432 1433 1435 1440 1449 1455 1463 1470 1479
1406 1406 1408 1410 1413 1414 1415 1416 1418 1419 1420 1423 1424 1427 1428 1427 1425 1426 1427 1429 1431 1436 1443 1447 1453 1463 1470
1399 1399 1401 1402 1404 1407 1408 1410 1411 1411 1413 1415 1417 1419 1420 1421 1421 1420 1424 1424 1426 1432 1439 1443 1449 1454 1463
1392 1393 1393 1395 1395 1398 1400 1402 1402 1403 1405 1408 1410 1411 1413 1414 1414 1413 1416 1417 1420 1424 1429 1434 1442 1446 1453
1384 1384 1385 1386 1388 1389 1392 1393 1394 1395 1397 1400 1403 1405 1405 1404 1406 1406 1408 1409 1414 1417 1420 1425 1433 1439 1447
1374 1375 1377 1378 1380 1381 1383 1384 1386 1388 1389 1392 1395 1397 1398 1395 1398 1400 1401 1403 1407 1409 1412 1416 1425 1430 1439
Wind_Speed
34 26 28 31 28 22 23 24 22 21 19 20 21 23 24 25 24 22 32 43 36 30 29 28 26 22 18
34 33 26 28 31 29 23 24 25 22 22 18 21 22 23 23 24 25 21 46 39 36 32 30 28 24 22
35 33 32 25 29 31 29 24 25 25 23 21 19 21 24 23 22 23 23 45 49 40 34 32 30 27 25
34 35 33 28 26 31 33 30 27 26 24 24 20 20 23 24 23 24 23 37 50 41 36 33 32 29 28
34 34 34 30 23 25 31 33 32 28 27 24 22 20 22 26 26 22 25 28 45 43 39 35 30 32 31
32 33 34 32 27 23 27 31 35 29 27 28 25 22 20 25 28 28 28 32 43 50 41 38 32 35 33
35 35 34 33 30 28 26 28 32 33 31 34 29 26 21 23 28 27 30 33 37 50 46 42 40 30 36
37 36 34 33 33 27 25 26 30 33 30 34 32 28 25 23 26 31 28 34 40 45 42 46 47 35 39
30 31 37 38 34 30 32 31 34 34 30 27 30 30 28 22 22 28 32 30 40 43 52 48 51 42 38
30 29 31 31 29 30 32 33 30 32 27 19 13 13 16 15 14 19 28 33 28 49 53 61 54 49 42
30 29 27 28 30 33 34 33 30 32 26 19 22 20 17 23 13 11 17 25 27 32 47 62 61 56 48
30 31 28 28 28 26 25 30 37 37 37 32 34 30 27 25 26 19 14 16 19 27 44 52 67 61 54
29 30 28 24 22 21 21 23 27 29 32 29 30 27 27 30 31 26 22 11 22 24 48 61 65 65 60
28 30 29 26 26 25 25 24 24 26 28 25 27 28 29 31 30 31 28 22 14 27 32 50 60 67 61
29 26 25 26 28 26 25 26 28 27 29 25 26 28 30 29 30 31 30 31 26 20 34 45 57 67 66
28 27 27 27 26 26 27 29 30 28 27 25 22 22 25 30 31 31 30 34 30 26 23 33 51 65 68
26 26 29 29 26 28 30 28 30 31 31 28 24 24 26 28 29 20 26 31 31 33 26 24 38 66 69
Wind_Direction
294 298 298 304 307 308 305 304 304 304 302 289 273 265 258 258 256 249 219 229 225 227 222 208 202 196 201
287 291 290 295 301 304 304 302 303 301 298 293 279 267 261 258 253 256 245 218 231 227 224 210 200 195 199
283 285 286 285 291 295 299 298 298 300 295 292 284 265 256 249 250 245 248 223 228 221 222 216 198 197 199
279 282 284 284 281 288 293 295 293 292 293 289 282 271 253 245 246 240 228 220 218 216 218 215 200 197 200
276 279 282 285 281 278 285 291 290 293 291 288 282 270 254 246 236 240 233 224 228 223 216 219 212 199 201
275 275 278 282 282 277 276 282 294 290 289 281 285 275 266 246 235 233 224 224 226 222 215 218 225 203 202
273 273 276 279 281 278 268 270 276 286 293 281 285 279 271 255 239 231 227 220 223 223 223 216 226 221 203
251 260 263 267 272 275 273 270 272 276 289 286 285 282 276 259 246 233 229 220 220 222 230 221 223 226 205
261 256 255 258 264 269 263 268 271 270 280 284 283 289 280 270 254 239 223 221 220 223 228 229 223 221 212
268 260 254 254 252 248 258 258 261 271 276 267 282 300 298 268 246 233 228 233 222 219 222 226 221 213 209
268 266 262 255 252 247 245 246 250 253 248 246 272 276 278 284 240 220 220 223 225 221 225 223 215 212 208
263 258 260 259 258 258 253 247 246 250 259 260 266 267 273 273 267 228 220 207 210 218 218 221 217 212 219
261 264 266 266 264 259 255 245 246 247 252 251 252 255 257 260 265 255 253 205 196 203 210 213 214 205 203
273 266 258 258 260 259 254 250 252 249 249 248 248 248 254 258 263 263 250 254 205 194 208 206 203 206 211
264 268 267 258 255 251 252 252 252 253 253 244 247 252 250 257 258 260 252 248 239 196 196 204 207 203 209
264 262 259 255 258 250 246 245 249 250 251 251 246 246 251 252 252 256 253 245 241 231 192 189 200 206 210
264 261 256 253 251 246 249 246 247 249 250 249 242 239 241 246 249 256 256 249 247 240 217 200 202 202 209